Location: De Greiden
(52.9496°N, 5.9137°E)
Time: 23:43:05
(UTC+00:00)

ATLAS 2AS CENTAUR R/B - Pass Details

Date: 24 January 2021
Orbit: 947 x 1265 km, 63.7° (Epoch: 13 February)

Event Time Altitude Azimuth Distance (km) Brightness Sun altitude
Rises 20:46:45 0° 304° (NW) 4,192 6.6 -41.2°
Reaches altitude 10° 20:49:45 10° 310° (NW) 3,196 5.8 -41.7°
Enters shadow 20:54:21 34° 334° (NNW) 1,858 4.1 -42.3°
